Location: Enid
(36.3960°N, 97.8780°W)
Time: 00:32:50
(UTC-05:00)

Hubble Space Telescope - Visible Passes

Search period start: 26 September 2017 00:00
Search period end: 06 October 2017 00:00
Orbit: 538 x 541 km, 28.5° (Epoch: 25 September)

Date Brightness Start Highest point End Pass type
(mag) Time Alt. Az. Time Alt. Az. Time Alt. Az.
01 Oct 3.3 05:33:37 11° SSE 05:34:08 11° SSE 05:35:19 10° SE visible
02 Oct 3.2 05:24:12 13° SSE 05:24:12 13° SSE 05:25:54 10° SE visible
02 Oct 2.5 07:01:05 10° SW 07:04:30 25° S 07:07:54 10° ESE visible
03 Oct 3.3 05:14:45 14° SE 05:14:45 14° SE 05:16:08 10° SE visible
03 Oct 2.4 06:50:47 10° SW 06:54:16 26° S 06:57:45 10° ESE visible
04 Oct 3.4 05:05:15 14° SE 05:05:15 14° SE 05:06:13 10° ESE visible
04 Oct 2.3 06:40:38 11° SW 06:44:02 27° S 06:47:34 10° ESE visible
05 Oct 3.6 04:55:45 12° ESE 04:55:45 12° ESE 04:56:12 10° ESE visible
05 Oct 2.2 06:31:07 14° SW 06:33:48 27° S 06:37:20 10° ESE visible
